This is the latest recevied weather packets stored in our database for station/object W5LND-10. If no packets are shown the sender has not sent any weather packets the latest 10 day(s).
| Time | Temp. | Humidity | Pressure | Rain* | Wind** | Luminosity | Snow |
|---|---|---|---|---|---|---|---|
| 1778003770 | 31.11° C | 21% | 1003 hPa | 0 mm | - | 947 W/m² | - |
| 1778003470 | 31.11° C | 20% | 1003.1 hPa | 0 mm | - | 967 W/m² | - |
| 1778003170 | 31.67° C | 21% | 1002.8 hPa | 0 mm | - | 976 W/m² | - |
| 1778002870 | 31.11° C | 23% | 1002.9 hPa | 0 mm | - | 1155 W/m² | - |
| 1778002570 | 30.56° C | 23% | 1003 hPa | 0 mm | - | 984 W/m² | - |
| 1778002270 | 30.56° C | 22% | 1003 hPa | 0 mm | - | 984 W/m² | - |
| 1778001970 | 30.56° C | 23% | 1003.1 hPa | 0 mm | - | 1076 W/m² | - |
| 1778001670 | 30° C | 24% | 1003.2 hPa | 0 mm | - | 1148 W/m² | - |
| 1778001370 | 30° C | 23% | 1003.2 hPa | 0 mm | - | 916 W/m² | - |
| 1778001070 | 30° C | 23% | 1003.2 hPa | 0 mm | - | 812 W/m² | - |
| 1778000770 | 29.44° C | 24% | 1003.1 hPa | 0 mm | - | 786 W/m² | - |
| 1778000470 | 29.44° C | 23% | 1003.2 hPa | 0 mm | - | 838 W/m² | - |
| 1778000170 | 29.44° C | 24% | 1003.2 hPa | 0 mm | - | 875 W/m² | - |
| 1777999870 | 28.89° C | 25% | 1003.1 hPa | 0 mm | - | 701 W/m² | - |
| 1777999570 | 28.89° C | 25% | 1003.2 hPa | 0 mm | - | 895 W/m² | - |
| 1777999270 | 28.33° C | 26% | 1003.2 hPa | 0 mm | - | 589 W/m² | - |
| 1777998970 | 28.33° C | 25% | 1003.3 hPa | 0 mm | - | 647 W/m² | - |
| 1777998670 | 28.33° C | 27% | 1003.3 hPa | 0 mm | - | 654 W/m² | - |
| 1777998370 | 27.78° C | 28% | 1003.3 hPa | 0 mm | - | 654 W/m² | - |
| 1777998073 | 27.78° C | 28% | 1003.4 hPa | 0 mm | - | 729 W/m² | - |
| 1777997773 | 27.78° C | 28% | 1003.2 hPa | 0 mm | - | 466 W/m² | - |
| 1777997470 | 27.22° C | 29% | 1003.2 hPa | 0 mm | - | 564 W/m² | - |
| 1777997170 | 27.22° C | 32% | 1003.2 hPa | 0 mm | - | 494 W/m² | - |
| 1777996870 | 26.67° C | 35% | 1003.1 hPa | 0 mm | - | 478 W/m² | - |
| 1777996570 | 26.67° C | 38% | 1003.2 hPa | 0 mm | - | 529 W/m² | - |
* Rain latest hour (hover to see other rain measurements)
** Current wind speed in m/s (hover to see current wind gust speed)